Location: Chenereilles
(45.4866°N, 4.0790°E)
Time: 08:36:57
(UTC+00:00)

Cosmos 2263 Rocket - Pass Details

Date: 12 November 2019
Orbit: 825 x 847 km, 71.0° (Epoch: 09 December)

Event Time Altitude Azimuth Distance (km) Brightness Sun altitude
Rises 18:07:58 0° 342° (NNW) 3,377 5.5 -19.5°
Reaches altitude 10° 18:11:23 10° 3° (N) 2,438 4.5 -20.1°
Enters shadow 18:13:26 15° 24° (NNE) 2,087 4.0 -20.5°
